Time,TemperatureF,DewpointF,PressureIn,WindDirection,WindDirectionDegrees,WindSpeedMPH,WindSpeedGustMPH,Humidity,HourlyPrecipIn,Conditions,Clouds,dailyrainin,SoftwareType,DateUTC
2013-02-11 00:09:00,38.2,36.6,28.64,West,259,8.0,13.0,94,0.00, +RA BR, +RA,-99.99,VWS V12.06,2013-02-11 06:09:00,
2013-02-11 00:14:00,38.2,36.4,28.64,WSW,251,7.0,18.0,93,0.00, +RA BR, +RA,-99.99,VWS V12.06,2013-02-11 06:14:00,
2013-02-11 00:19:00,38.0,36.2,28.64,WSW,246,10.0,18.0,93,0.00, +RA BR, +RA,-99.99,VWS V12.06,2013-02-11 06:19:00,
2013-02-11 00:24:00,37.9,36.3,28.65,West,261,5.0,18.0,94,0.00, +RA BR, +RA,-99.99,VWS V12.06,2013-02-11 06:24:00,
2013-02-11 00:29:00,37.7,36.1,28.65,WSW,245,6.0,18.0,94,0.00, +RA BR, +RA,-99.99,VWS V12.06,2013-02-11 06:29:00,
2013-02-11 00:34:00,37.6,35.8,28.65,WSW,248,9.0,24.0,93,0.00, +RA BR, +RA,-99.99,VWS V12.06,2013-02-11 06:34:00,
2013-02-11 00:39:00,37.3,35.5,28.65,WSW,253,12.0,24.0,93,0.00, +RA BR, +RA,-99.99,VWS V12.06,2013-02-11 06:39:00,
2013-02-11 00:44:00,37.1,35.5,28.65,WSW,238,16.0,24.0,94,0.00, +RA BR, +RA,-99.99,VWS V12.06,2013-02-11 06:44:00,
2013-02-11 00:54:00,36.7,35.4,28.65,West,261,17.0,24.0,95,0.00, +RA BR, +RA,-99.99,VWS V12.06,2013-02-11 06:54:00,
2013-02-11 00:59:00,36.6,35.0,28.65,WSW,238,12.0,28.0,94,0.00, +RA BR, +RA,-99.99,VWS V12.06,2013-02-11 06:59:00,
2013-02-11 01:04:00,36.4,35.1,28.65,SW,229,11.0,22.0,95,0.00, +RA BR, +RA,-99.99,VWS V12.06,2013-02-11 07:04:00,
2013-02-11 01:09:00,36.1,34.8,28.65,WSW,238,12.0,25.0,95,0.00, +RA BR, +RA,-99.99,VWS V12.06,2013-02-11 07:09:00,
2013-02-11 01:14:00,36.0,34.7,28.66,WSW,254,9.0,25.0,95,0.00, +RA BR, +RA,-99.99,VWS V12.06,2013-02-11 07:14:00,
2013-02-11 01:19:00,35.9,34.6,28.65,WSW,252,18.0,25.0,95,0.00, +RA BR, +RA,-99.99,VWS V12.06,2013-02-11 07:19:00,
2013-02-11 01:29:00,35.5,34.0,28.66,West,275,13.0,25.0,94,0.00, +RA BR, +RA,-99.99,VWS V12.06,2013-02-11 07:29:00,
2013-02-11 01:34:00,35.5,34.0,28.66,WSW,246,14.0,25.0,94,0.00, +RA BR, +RA,-99.99,VWS V12.06,2013-02-11 07:34:00,
2013-02-11 01:39:00,35.2,33.9,28.67,West,260,14.0,25.0,95,0.00, +RA BR, +RA,-99.99,VWS V12.06,2013-02-11 07:39:00,
2013-02-11 01:49:00,35.2,33.7,28.67,West,275,16.0,29.0,94,0.00, +RA BR, +RA,-99.99,VWS V12.06,2013-02-11 07:49:00,
2013-02-11 01:54:00,34.9,33.3,28.67,West,272,16.0,29.0,94,0.00, +RA BR, +RA,-99.99,VWS V12.06,2013-02-11 07:54:00,
2013-02-11 01:59:00,34.7,33.2,28.67,WSW,244,12.0,29.0,94,0.00, +RA BR, +RA,-99.99,VWS V12.06,2013-02-11 07:59:00,
2013-02-11 02:04:00,34.6,33.3,28.68,WSW,256,16.0,22.0,95,0.00, +RA BR, +RA,-99.99,VWS V12.06,2013-02-11 08:04:00,
2013-02-11 02:09:00,34.4,33.1,28.68,WSW,246,9.0,23.0,95,0.00, +RA BR, +RA,-99.99,VWS V12.06,2013-02-11 08:09:00,
2013-02-11 02:14:00,34.3,32.8,28.68,West,260,12.0,25.0,94,0.00, +RA BR, +RA,-99.99,VWS V12.06,2013-02-11 08:14:00,
2013-02-11 02:19:00,34.2,32.1,28.68,WSW,255,8.0,25.0,92,0.00, +RA BR, +RA,-99.99,VWS V12.06,2013-02-11 08:19:00,
2013-02-11 02:24:00,34.2,32.1,28.68,West,268,14.0,27.0,92,0.00, +RA BR, +RA,-99.99,VWS V12.06,2013-02-11 08:24:00,
2013-02-11 02:29:00,34.2,31.9,28.68,WSW,253,13.0,31.0,91,0.00, +RA BR, +RA,-99.99,VWS V12.06,2013-02-11 08:29:00,
2013-02-11 02:39:00,34.0,31.9,28.68,WSW,249,9.0,32.0,92,0.00, +RA BR, +RA,-99.99,VWS V12.06,2013-02-11 08:39:00,
2013-02-11 02:44:00,33.9,31.8,28.68,WSW,258,13.0,32.0,92,0.00, +RA BR, +RA,-99.99,VWS V12.06,2013-02-11 08:44:00,
2013-02-11 02:49:00,33.9,32.1,28.68,WSW,241,11.0,32.0,93,0.00, +RA BR, +RA,-99.99,VWS V12.06,2013-02-11 08:49:00,
2013-02-11 02:54:00,33.7,31.6,28.68,WSW,250,10.0,32.0,92,0.00, +RA BR, +RA,-99.99,VWS V12.06,2013-02-11 08:54:00,
2013-02-11 02:59:00,33.7,31.4,28.68,WSW,245,14.0,32.0,91,0.00, +RA BR, +RA,-99.99,VWS V12.06,2013-02-11 08:59:00,
2013-02-11 03:09:00,33.7,31.1,28.68,WSW,250,12.0,31.0,90,0.00, +RA BR, +RA,-99.99,VWS V12.06,2013-02-11 09:09:00,
2013-02-11 03:14:00,33.6,31.5,28.68,WSW,256,12.0,31.0,92,0.00, +RA BR, +RA,-99.99,VWS V12.06,2013-02-11 09:14:00,
2013-02-11 03:19:00,33.6,31.8,28.69,WSW,245,10.0,31.0,93,0.00, +RA BR, +RA,-99.99,VWS V12.06,2013-02-11 09:19:00,
2013-02-11 03:24:00,33.4,31.9,28.69,WSW,239,17.0,31.0,94,0.00, +RA BR, +RA,-99.99,VWS V12.06,2013-02-11 09:24:00,
2013-02-11 03:34:00,33.3,31.8,28.69,West,270,20.0,21.0,94,0.00, +RA BR, +RA,-99.99,VWS V12.06,2013-02-11 09:34:00,
2013-02-11 03:39:00,33.3,31.8,28.68,West,269,13.0,27.0,94,0.00, +RA BR, +RA,-99.99,VWS V12.06,2013-02-11 09:39:00,
2013-02-11 03:44:00,33.2,31.7,28.69,West,269,8.0,27.0,94,0.00, +RA BR, +RA,-99.99,VWS V12.06,2013-02-11 09:44:00,
2013-02-11 03:49:00,33.2,31.7,28.69,WSW,258,5.0,27.0,94,0.00, +RA BR, +RA,-99.99,VWS V12.06,2013-02-11 09:49:00,
2013-02-11 03:54:00,33.0,31.5,28.69,WSW,252,21.0,29.0,94,0.00, +RA BR, +RA,-99.99,VWS V12.06,2013-02-11 09:54:00,
2013-02-11 03:59:00,33.0,30.7,28.69,SW,217,7.0,29.0,91,0.00, +RA BR, +RA,-99.99,VWS V12.06,2013-02-11 09:59:00,
2013-02-11 04:04:00,32.8,30.5,28.69,WSW,256,14.0,29.0,91,0.00, +RA BR, +RA,-99.99,VWS V12.06,2013-02-11 10:04:00,
2013-02-11 04:09:00,32.8,30.2,28.69,West,261,15.0,29.0,90,0.00, +RA BR, +RA,-99.99,VWS V12.06,2013-02-11 10:09:00,
2013-02-11 04:14:00,32.8,30.2,28.69,West,268,16.0,29.0,90,0.00, +RA BR, +RA,-99.99,VWS V12.06,2013-02-11 10:14:00,
2013-02-11 04:19:00,32.6,30.0,28.69,WSW,252,16.0,29.0,90,0.00, +RA BR, +RA,-99.99,VWS V12.06,2013-02-11 10:19:00,
2013-02-11 04:24:00,32.6,29.7,28.70,West,260,14.0,29.0,89,0.00, +RA BR, +RA,-99.99,VWS V12.06,2013-02-11 10:24:00,
2013-02-11 04:34:00,32.5,29.6,28.70,WSW,246,13.0,23.0,89,0.00, +RA BR, +RA,-99.99,VWS V12.06,2013-02-11 10:34:00,
2013-02-11 04:39:00,32.5,29.9,28.70,West,271,18.0,27.0,90,0.00, +RA BR, +RA,-99.99,VWS V12.06,2013-02-11 10:39:00,
2013-02-11 04:44:00,32.5,29.6,28.71,WSW,251,22.0,27.0,89,0.00, +RA BR, +RA,-99.99,VWS V12.06,2013-02-11 10:44:00,
2013-02-11 04:49:00,32.5,29.9,28.72,WSW,250,9.0,27.0,90,0.00, +RA BR, +RA,-99.99,VWS V12.06,2013-02-11 10:49:00,
2013-02-11 04:54:00,32.3,30.2,28.72,WSW,251,15.0,27.0,92,0.00, +RA BR, +RA,-99.99,VWS V12.06,2013-02-11 10:54:00,
2013-02-11 04:59:00,32.2,29.9,28.72,WSW,255,15.0,30.0,91,0.00, +RA BR, +RA,-99.99,VWS V12.06,2013-02-11 10:59:00,
2013-02-11 05:04:00,32.2,29.9,28.72,West,264,9.0,30.0,91,0.00, +RA BR, +RA,-99.99,VWS V12.06,2013-02-11 11:04:00,
2013-02-11 05:09:00,32.2,29.9,28.72,West,270,12.0,30.0,91,0.00, +RA BR, +RA,-99.99,VWS V12.06,2013-02-11 11:09:00,
2013-02-11 05:14:00,32.2,29.6,28.72,West,273,11.0,30.0,90,0.00, +RA BR, +RA,-99.99,VWS V12.06,2013-02-11 11:14:00,
2013-02-11 05:19:00,32.2,30.1,28.72,West,277,12.0,30.0,92,0.00, +RA BR, +RA,-99.99,VWS V12.06,2013-02-11 11:19:00,
2013-02-11 05:29:00,32.2,29.9,28.72,West,273,14.0,30.0,91,0.00, +RA BR, +RA,-99.99,VWS V12.06,2013-02-11 11:29:00,
2013-02-11 05:34:00,32.1,30.0,28.72,West,260,10.0,23.0,92,0.00, +RA BR, +RA,-99.99,VWS V12.06,2013-02-11 11:34:00,
2013-02-11 05:39:00,32.1,29.5,28.72,WSW,258,10.0,28.0,90,0.00, +RA BR, +RA,-99.99,VWS V12.06,2013-02-11 11:39:00,
2013-02-11 05:44:00,32.0,29.7,28.72,WSW,240,18.0,28.0,91,0.00, +RA BR, +RA,-99.99,VWS V12.06,2013-02-11 11:44:00,
2013-02-11 05:49:00,31.9,29.6,28.73,WSW,257,17.0,28.0,91,0.00, +RA BR, +RA,-99.99,VWS V12.06,2013-02-11 11:49:00,
2013-02-11 05:54:00,31.9,29.8,28.73,West,270,24.0,28.0,92,0.00, +RA BR, +RA,-99.99,VWS V12.06,2013-02-11 11:54:00,
2013-02-11 05:59:00,31.8,29.8,28.73,WSW,244,15.0,28.0,92,0.00, +RA BR, +RA,-99.99,VWS V12.06,2013-02-11 11:59:00,
2013-02-11 06:04:00,31.8,30.0,28.73,West,265,18.0,24.0,93,0.00, +RA BR, +RA,-99.99,VWS V12.06,2013-02-11 12:04:00,
2013-02-11 06:09:00,31.8,29.8,28.74,West,263,12.0,26.0,92,0.00, +RA BR, +RA,-99.99,VWS V12.06,2013-02-11 12:09:00,
2013-02-11 06:14:00,31.8,29.8,28.74,WSW,252,14.0,26.0,92,0.00, +RA BR, +RA,-99.99,VWS V12.06,2013-02-11 12:14:00,
2013-02-11 06:24:00,31.8,29.8,28.75,WSW,248,12.0,27.0,92,0.00, +RA BR, +RA,-99.99,VWS V12.06,2013-02-11 12:24:00,
2013-02-11 06:29:00,31.8,29.8,28.75,West,267,11.0,27.0,92,0.00, +RA BR, +RA,-99.99,VWS V12.06,2013-02-11 12:29:00,
2013-02-11 06:34:00,31.8,29.8,28.75,WSW,245,13.0,27.0,92,0.00, +RA BR, +RA,-99.99,VWS V12.06,2013-02-11 12:34:00,
2013-02-11 06:39:00,31.8,30.0,28.75,WSW,238,7.0,27.0,93,0.00, +RA BR, +RA,-99.99,VWS V12.06,2013-02-11 12:39:00,
2013-02-11 06:44:00,31.7,29.9,28.75,West,260,7.0,27.0,93,0.00, +RA BR, +RA,-99.99,VWS V12.06,2013-02-11 12:44:00,
2013-02-11 06:49:00,31.7,29.9,28.76,West,267,18.0,27.0,93,0.00, +RA BR, +RA,-99.99,VWS V12.06,2013-02-11 12:49:00,
2013-02-11 06:54:00,31.8,30.0,28.76,WSW,255,10.0,27.0,93,0.00, +RA BR, +RA,-99.99,VWS V12.06,2013-02-11 12:54:00,
2013-02-11 06:59:00,31.8,29.8,28.76,West,264,11.0,27.0,92,0.00, +RA BR, +RA,-99.99,VWS V12.06,2013-02-11 12:59:00,
2013-02-11 07:04:00,31.8,30.0,28.77,WSW,240,13.0,20.0,93,0.00, +RA BR, +RA,-99.99,VWS V12.06,2013-02-11 13:04:00,
2013-02-11 07:09:00,31.8,30.0,28.77,West,274,14.0,21.0,93,0.00, +RA BR, +RA,-99.99,VWS V12.06,2013-02-11 13:09:00,
2013-02-11 07:19:00,31.9,29.8,28.78,West,274,9.0,24.0,92,0.00, +RA BR, +RA,-99.99,VWS V12.06,2013-02-11 13:19:00,
2013-02-11 07:24:00,31.8,29.8,28.77,West,281,10.0,25.0,92,0.00, +RA BR, +RA,-99.99,VWS V12.06,2013-02-11 13:24:00,
2013-02-11 07:34:00,31.9,29.3,28.78,West,267,9.0,29.0,90,0.00, +RA BR, +RA,-99.99,VWS V12.06,2013-02-11 13:34:00,
2013-02-11 07:39:00,31.8,29.5,28.78,West,269,17.0,29.0,91,0.00, +RA BR, +RA,-99.99,VWS V12.06,2013-02-11 13:39:00,
2013-02-11 07:44:00,31.8,29.2,28.79,West,274,17.0,29.0,90,0.00, +RA BR, +RA,-99.99,VWS V12.06,2013-02-11 13:44:00,
2013-02-11 07:49:00,31.8,29.2,28.79,West,261,12.0,29.0,90,0.00, +RA BR, +RA,-99.99,VWS V12.06,2013-02-11 13:49:00,
2013-02-11 07:54:00,31.5,29.5,28.79,WSW,253,17.0,29.0,92,0.00, +RA BR, +RA,-99.99,VWS V12.06,2013-02-11 13:54:00,
2013-02-11 07:59:00,31.2,29.7,28.79,West,272,12.0,29.0,94,0.00, +RA BR, +RA,-99.99,VWS V12.06,2013-02-11 13:59:00,
2013-02-11 08:09:00,30.8,29.8,28.80,WSW,252,12.0,27.0,96,0.00, +RA BR, +RA,-99.99,VWS V12.06,2013-02-11 14:09:00,
2013-02-11 08:14:00,30.6,29.9,28.80,WSW,250,11.0,27.0,97,0.00, +RA BR, +RA,-99.99,VWS V12.06,2013-02-11 14:14:00,
2013-02-11 08:19:00,30.5,30.2,28.81,West,262,12.0,28.0,99,0.00, +RA BR, +RA,-99.99,VWS V12.06,2013-02-11 14:19:00,
2013-02-11 08:24:00,30.3,30.3,28.81,West,278,9.0,28.0,100,0.00, +RA BR, +RA,-99.99,VWS V12.06,2013-02-11 14:24:00,
2013-02-11 08:29:00,30.2,30.2,28.81,WSW,253,14.0,28.0,100,0.00, +RA BR, +RA,-99.99,VWS V12.06,2013-02-11 14:29:00,
2013-02-11 08:34:00,29.9,29.9,28.81,West,272,9.0,24.0,100,0.00, +RA BR, +RA,-99.99,VWS V12.06,2013-02-11 14:34:00,
2013-02-11 08:39:00,29.9,29.9,28.81,WSW,252,12.0,24.0,100,0.00, +RA BR, +RA,-99.99,VWS V12.06,2013-02-11 14:39:00,
2013-02-11 08:44:00,29.9,29.9,28.81,WSW,239,7.0,24.0,100,0.00, +RA BR, +RA,-99.99,VWS V12.06,2013-02-11 14:44:00,
2013-02-11 08:49:00,30.0,30.0,28.81,WSW,245,5.0,24.0,100,0.00, +RA BR, +RA,-99.99,VWS V12.06,2013-02-11 14:49:00,
2013-02-11 08:54:00,30.0,30.0,28.82,WSW,244,15.0,24.0,100,0.00, +RA BR, +RA,-99.99,VWS V12.06,2013-02-11 14:54:00,
2013-02-11 08:59:00,30.0,30.0,28.82,WNW,282,12.0,24.0,100,0.00, +RA BR, +RA,-99.99,VWS V12.06,2013-02-11 14:59:00,
2013-02-11 09:09:00,30.0,30.0,28.83,West,266,14.0,24.0,100,0.00, +RA BR, +RA,-99.99,VWS V12.06,2013-02-11 15:09:00,
2013-02-11 09:14:00,30.0,30.0,28.83,West,270,11.0,24.0,100,0.00, +RA BR, +RA,-99.99,VWS V12.06,2013-02-11 15:14:00,
2013-02-11 09:19:00,29.9,29.9,28.83,West,278,14.0,26.0,100,0.00, +RA BR, +RA,-99.99,VWS V12.06,2013-02-11 15:19:00,
2013-02-11 09:24:00,29.9,29.9,28.84,West,261,13.0,26.0,100,0.00, +RA BR, +RA,-99.99,VWS V12.06,2013-02-11 15:24:00,
2013-02-11 09:29:00,30.0,30.0,28.84,WSW,251,14.0,26.0,100,0.00, +RA BR, +RA,-99.99,VWS V12.06,2013-02-11 15:29:00,
2013-02-11 09:34:00,30.2,30.2,28.84,West,259,8.0,23.0,100,0.00, +RA BR, +RA,-99.99,VWS V12.06,2013-02-11 15:34:00,
2013-02-11 09:39:00,30.3,30.3,28.85,West,277,17.0,27.0,100,0.00, +RA BR, +RA,-99.99,VWS V12.06,2013-02-11 15:39:00,
2013-02-11 09:44:00,30.3,30.3,28.86,West,273,26.0,29.0,100,0.00, +RA BR, +RA,-99.99,VWS V12.06,2013-02-11 15:44:00,
2013-02-11 09:49:00,30.5,30.0,28.86,West,262,9.0,29.0,98,0.00, +RA BR, +RA,-99.99,VWS V12.06,2013-02-11 15:49:00,
2013-02-11 09:54:00,30.5,30.0,28.86,West,263,14.0,29.0,98,0.00, +RA BR, +RA,-99.99,VWS V12.06,2013-02-11 15:54:00,
2013-02-11 10:00:00,30.5,30.0,28.87,NW,307,11.0,11.0,98,0.00, +RA BR, +RA,-99.99,VWS V12.06,2013-02-11 16:00:00,
2013-02-11 10:09:00,30.6,30.1,28.87,West,263,10.0,20.0,98,0.00, +RA BR, +RA,-99.99,VWS V12.06,2013-02-11 16:09:00,
2013-02-11 10:14:00,30.6,30.1,28.87,WSW,240,6.0,21.0,98,0.00, +RA BR, +RA,-99.99,VWS V12.06,2013-02-11 16:14:00,
2013-02-11 10:19:00,30.6,29.9,28.88,West,270,15.0,25.0,97,0.00, +RA BR, +RA,-99.99,VWS V12.06,2013-02-11 16:19:00,
2013-02-11 10:24:00,30.7,30.0,28.88,West,262,20.0,25.0,97,0.00, +RA BR, +RA,-99.99,VWS V12.06,2013-02-11 16:24:00,
2013-02-11 10:29:00,30.8,29.3,28.88,WNW,292,13.0,29.0,94,0.00, +RA BR, +RA,-99.99,VWS V12.06,2013-02-11 16:29:00,
2013-02-11 10:34:00,30.7,29.4,28.88,West,281,17.0,25.0,95,0.00, +RA BR, +RA,-99.99,VWS V12.06,2013-02-11 16:34:00,
2013-02-11 10:39:00,30.9,29.4,28.88,WNW,287,13.0,30.0,94,0.00, +RA BR, +RA,-99.99,VWS V12.06,2013-02-11 16:39:00,
2013-02-11 10:45:00,30.9,29.4,28.89,West,266,14.0,30.0,94,0.00, +RA BR, +RA,-99.99,VWS V12.06,2013-02-11 16:45:00,
2013-02-11 10:50:00,31.0,29.5,28.89,West,277,18.0,30.0,94,0.00, +RA BR, +RA,-99.99,VWS V12.06,2013-02-11 16:50:00,
2013-02-11 10:55:00,31.0,29.5,28.89,West,272,19.0,30.0,94,0.00, +RA BR, +RA,-99.99,VWS V12.06,2013-02-11 16:55:00,
2013-02-11 11:00:00,31.0,29.0,28.89,West,275,16.0,32.0,92,0.00, +RA BR, +RA,-99.99,VWS V12.06,2013-02-11 17:00:00,
2013-02-11 11:10:00,30.9,29.1,28.90,West,275,18.0,26.0,93,0.00, +RA BR, +RA,-99.99,VWS V12.06,2013-02-11 17:10:00,
2013-02-11 11:15:00,30.9,28.9,28.90,West,272,16.0,32.0,92,0.00, +RA BR, +RA,-99.99,VWS V12.06,2013-02-11 17:15:00,
2013-02-11 11:20:00,30.8,28.2,28.91,West,273,14.0,35.0,90,0.00, +RA BR, +RA,-99.99,VWS V12.06,2013-02-11 17:20:00,
2013-02-11 11:30:00,30.8,28.2,28.91,West,280,16.0,36.0,90,0.00, +RA BR, +RA,-99.99,VWS V12.06,2013-02-11 17:30:00,
2013-02-11 11:35:00,30.8,28.2,28.91,West,274,17.0,28.0,90,0.00, +RA BR, +RA,-99.99,VWS V12.06,2013-02-11 17:35:00,
2013-02-11 11:40:00,30.7,28.1,28.91,WNW,283,12.0,28.0,90,0.00, +RA BR, +RA,-99.99,VWS V12.06,2013-02-11 17:40:00,
2013-02-11 11:45:00,30.7,28.1,28.91,West,267,11.0,28.0,90,0.00, +RA BR, +RA,-99.99,VWS V12.06,2013-02-11 17:45:00,
2013-02-11 11:50:00,30.8,28.0,28.92,WNW,293,21.0,28.0,89,0.00, +RA BR, +RA,-99.99,VWS V12.06,2013-02-11 17:50:00,
2013-02-11 11:55:00,30.9,28.0,28.92,West,281,9.0,28.0,89,0.00, +RA BR, +RA,-99.99,VWS V12.06,2013-02-11 17:55:00,
2013-02-11 12:00:00,30.7,27.9,28.92,WNW,282,12.0,28.0,89,0.00, +RA BR, +RA,-99.99,VWS V12.06,2013-02-11 18:00:00,
2013-02-11 12:05:00,30.6,28.0,28.92,WNW,285,17.0,25.0,90,0.00, +RA BR, +RA,-99.99,VWS V12.06,2013-02-11 18:05:00,
2013-02-11 12:10:00,30.6,28.6,28.93,West,269,25.0,25.0,92,0.00, +RA BR, +RA,-99.99,VWS V12.06,2013-02-11 18:10:00,
2013-02-11 12:15:00,30.5,27.9,28.93,WNW,287,14.0,25.0,90,0.00, +RA BR, +RA,-99.99,VWS V12.06,2013-02-11 18:15:00,
2013-02-11 12:20:00,30.3,27.5,28.93,WNW,284,17.0,27.0,89,0.00, +RA BR, +RA,-99.99,VWS V12.06,2013-02-11 18:20:00,
2013-02-11 12:25:00,30.3,27.2,28.93,WNW,285,17.0,30.0,88,0.00, +RA BR, +RA,-99.99,VWS V12.06,2013-02-11 18:25:00,
2013-02-11 12:35:00,30.2,27.4,28.94,WNW,292,19.0,27.0,89,0.00, +RA BR, +RA,-99.99,VWS V12.06,2013-02-11 18:35:00,
2013-02-11 12:40:00,30.2,27.4,28.94,WNW,288,13.0,29.0,89,0.00, +RA BR, +RA,-99.99,VWS V12.06,2013-02-11 18:40:00,
2013-02-11 12:45:00,30.0,26.6,28.95,West,267,21.0,29.0,87,0.00, +RA BR, +RA,-99.99,VWS V12.06,2013-02-11 18:45:00,
2013-02-11 12:55:00,29.9,26.2,28.96,West,271,13.0,29.0,86,0.00, +RA BR, +RA,-99.99,VWS V12.06,2013-02-11 18:55:00,
2013-02-11 13:01:00,29.7,26.0,28.95,WSW,257,22.0,22.0,86,0.00, +RA BR, +RA,-99.99,VWS V12.06,2013-02-11 19:01:00,
2013-02-11 13:10:00,29.7,26.3,28.96,West,269,14.0,24.0,87,0.00, +RA BR, +RA,-99.99,VWS V12.06,2013-02-11 19:10:00,
2013-02-11 13:15:00,29.6,25.9,28.97,West,263,14.0,24.0,86,0.00, +RA BR, +RA,-99.99,VWS V12.06,2013-02-11 19:15:00,
2013-02-11 13:20:00,29.5,25.8,28.96,WNW,288,16.0,24.0,86,0.00, +RA BR, +RA,-99.99,VWS V12.06,2013-02-11 19:20:00,
2013-02-11 13:25:00,29.7,26.3,28.96,West,269,10.0,24.0,87,0.00, +RA BR, +RA,-99.99,VWS V12.06,2013-02-11 19:25:00,
2013-02-11 13:30:00,29.7,26.0,28.96,West,268,16.0,24.0,86,0.00, +RA BR, +RA,-99.99,VWS V12.06,2013-02-11 19:30:00,
2013-02-11 13:40:00,29.7,26.3,28.97,WNW,294,13.0,24.0,87,0.00, +RA BR, +RA,-99.99,VWS V12.06,2013-02-11 19:40:00,
2013-02-11 13:45:00,29.5,25.8,28.97,West,272,22.0,24.0,86,0.00, +RA BR, +RA,-99.99,VWS V12.06,2013-02-11 19:45:00,
2013-02-11 13:50:00,29.5,25.8,28.98,WNW,287,12.0,24.0,86,0.00, +RA BR, +RA,-99.99,VWS V12.06,2013-02-11 19:50:00,
2013-02-11 13:55:00,29.4,25.7,28.98,West,276,11.0,24.0,86,0.00, +RA BR, +RA,-99.99,VWS V12.06,2013-02-11 19:55:00,
2013-02-11 14:00:00,29.4,25.7,28.98,WNW,289,18.0,24.0,86,0.00, +RA BR, +RA,-99.99,VWS V12.06,2013-02-11 20:00:00,
2013-02-11 14:10:00,29.4,26.0,28.99,WNW,287,9.0,23.0,87,0.00, +RA BR, +RA,-99.99,VWS V12.06,2013-02-11 20:10:00,
2013-02-11 14:15:00,29.3,25.4,28.99,West,281,9.0,23.0,85,0.00, +RA BR, +RA,-99.99,VWS V12.06,2013-02-11 20:15:00,
2013-02-11 14:20:00,29.2,25.5,29.00,West,263,14.0,23.0,86,0.00, +RA BR, +RA,-99.99,VWS V12.06,2013-02-11 20:20:00,
2013-02-11 14:30:00,29.3,26.5,29.00,West,278,13.0,23.0,89,0.00, +RA BR, +RA,-99.99,VWS V12.06,2013-02-11 20:30:00,
2013-02-11 14:35:00,29.1,25.4,29.00,WNW,297,14.0,19.0,86,0.00, +RA BR, +RA,-99.99,VWS V12.06,2013-02-11 20:35:00,
2013-02-11 14:40:00,29.1,25.4,29.00,WNW,286,11.0,25.0,86,0.00, +RA BR, +RA,-99.99,VWS V12.06,2013-02-11 20:40:00,
2013-02-11 14:45:00,29.1,25.7,29.00,WNW,294,13.0,25.0,87,0.00, +RA BR, +RA,-99.99,VWS V12.06,2013-02-11 20:45:00,
2013-02-11 14:50:00,29.1,25.7,29.00,West,273,16.0,25.0,87,0.00, +RA BR, +RA,-99.99,VWS V12.06,2013-02-11 20:50:00,
2013-02-11 14:55:00,29.1,25.7,29.00,West,278,22.0,26.0,87,0.00, +RA BR, +RA,-99.99,VWS V12.06,2013-02-11 20:55:00,
2013-02-11 15:00:00,29.0,25.4,29.01,WNW,284,19.0,28.0,86,0.00, +RA BR, +RA,-99.99,VWS V12.06,2013-02-11 21:00:00,
2013-02-11 15:05:00,28.9,25.0,29.01,WSW,256,8.0,26.0,85,0.00, +RA BR, +RA,-99.99,VWS V12.06,2013-02-11 21:05:00,
2013-02-11 15:10:00,28.9,24.7,29.01,WSW,257,14.0,29.0,84,0.00, +RA BR, +RA,-99.99,VWS V12.06,2013-02-11 21:10:00,
2013-02-11 15:15:00,29.0,24.8,29.02,West,280,23.0,29.0,84,0.00, +RA BR, +RA,-99.99,VWS V12.06,2013-02-11 21:15:00,
2013-02-11 15:20:00,29.0,24.8,29.02,West,264,14.0,29.0,84,0.00, +RA BR, +RA,-99.99,VWS V12.06,2013-02-11 21:20:00,
2013-02-11 15:30:00,29.1,24.9,29.03,WNW,290,7.0,29.0,84,0.00, +RA BR, +RA,-99.99,VWS V12.06,2013-02-11 21:30:00,
2013-02-11 15:35:00,29.1,24.9,29.02,West,259,15.0,26.0,84,0.00, +RA BR, +RA,-99.99,VWS V12.06,2013-02-11 21:35:00,
2013-02-11 15:40:00,29.3,25.4,29.03,WNW,291,10.0,26.0,85,0.00, +RA BR, +RA,-99.99,VWS V12.06,2013-02-11 21:40:00,
2013-02-11 15:45:00,29.1,25.2,29.03,West,279,11.0,26.0,85,0.00, +RA BR, +RA,-99.99,VWS V12.06,2013-02-11 21:45:00,
2013-02-11 15:50:00,29.1,25.4,29.03,West,272,9.0,26.0,86,0.00, +RA BR, +RA,-99.99,VWS V12.06,2013-02-11 21:50:00,
2013-02-11 15:55:00,29.1,25.2,29.04,West,274,11.0,26.0,85,0.00, +RA BR, +RA,-99.99,VWS V12.06,2013-02-11 21:55:00,
2013-02-11 16:00:00,29.1,25.4,29.04,West,270,9.0,26.0,86,0.00, +RA BR, +RA,-99.99,VWS V12.06,2013-02-11 22:00:00,
2013-02-11 16:05:00,29.3,25.6,29.04,WNW,287,7.0,17.0,86,0.00, +RA BR, +RA,-99.99,VWS V12.06,2013-02-11 22:05:00,
2013-02-11 16:15:00,29.3,25.1,29.05,WNW,285,17.0,24.0,84,0.00, +RA BR, +RA,-99.99,VWS V12.06,2013-02-11 22:15:00,
2013-02-11 16:20:00,29.1,24.9,29.05,West,271,11.0,24.0,84,0.00, +RA BR, +RA,-99.99,VWS V12.06,2013-02-11 22:20:00,
2013-02-11 16:25:00,29.1,24.6,29.05,West,273,20.0,24.0,83,0.00, +RA BR, +RA,-99.99,VWS V12.06,2013-02-11 22:25:00,
2013-02-11 16:30:00,29.1,24.9,29.05,WNW,297,6.0,24.0,84,0.00, +RA BR, +RA,-99.99,VWS V12.06,2013-02-11 22:30:00,
2013-02-11 16:35:00,28.9,25.0,29.06,WNW,287,14.0,16.0,85,0.00, +RA BR, +RA,-99.99,VWS V12.06,2013-02-11 22:35:00,
2013-02-11 16:40:00,28.9,25.0,29.06,WNW,287,7.0,24.0,85,0.00, +RA BR, +RA,-99.99,VWS V12.06,2013-02-11 22:40:00,
2013-02-11 16:45:00,28.8,24.6,29.06,West,262,18.0,28.0,84,0.00, +RA BR, +RA,-99.99,VWS V12.06,2013-02-11 22:45:00,
2013-02-11 16:50:00,28.6,24.1,29.07,WNW,284,11.0,28.0,83,0.00, +RA BR, +RA,-99.99,VWS V12.06,2013-02-11 22:50:00,
2013-02-11 16:55:00,28.7,24.2,29.07,WNW,303,14.0,28.0,83,0.00, +RA BR, +RA,-99.99,VWS V12.06,2013-02-11 22:55:00,
2013-02-11 17:00:00,28.5,24.3,29.07,WNW,283,10.0,28.0,84,0.00, +RA BR, +RA,-99.99,VWS V12.06,2013-02-11 23:00:00,
2013-02-11 17:05:00,28.5,24.3,29.07,WNW,292,12.0,24.0,84,0.00, +RA BR, +RA,-99.99,VWS V12.06,2013-02-11 23:05:00,
2013-02-11 17:10:00,28.5,24.6,29.08,WNW,286,14.0,24.0,85,0.00, +RA BR, +RA,-99.99,VWS V12.06,2013-02-11 23:10:00,
2013-02-11 17:20:00,28.5,24.3,29.08,West,274,7.0,24.0,84,0.00, +RA BR, +RA,-99.99,VWS V12.06,2013-02-11 23:20:00,
2013-02-11 17:25:00,28.4,24.5,29.08,West,272,9.0,24.0,85,0.00, +RA BR, +RA,-99.99,VWS V12.06,2013-02-11 23:25:00,
2013-02-11 17:30:00,28.4,24.5,29.09,West,270,12.0,24.0,85,0.00, +RA BR, +RA,-99.99,VWS V12.06,2013-02-11 23:30:00,
2013-02-11 17:35:00,28.4,24.5,29.08,West,274,11.0,17.0,85,0.00, +RA BR, +RA,-99.99,VWS V12.06,2013-02-11 23:35:00,
2013-02-11 17:40:00,28.4,24.8,29.09,WSW,255,6.0,17.0,86,0.00, +RA BR, +RA,-99.99,VWS V12.06,2013-02-11 23:40:00,
2013-02-11 17:45:00,28.4,24.8,29.09,West,269,7.0,21.0,86,0.00, +RA BR, +RA,-99.99,VWS V12.06,2013-02-11 23:45:00,
2013-02-11 17:55:00,28.4,24.8,29.10,NW,305,11.0,22.0,86,0.00, +RA BR, +RA,-99.99,VWS V12.06,2013-02-11 23:55:00,
2013-02-11 18:00:00,28.4,24.5,29.09,West,275,14.0,22.0,85,0.00, +RA BR, +RA,-99.99,VWS V12.06,2013-02-12 00:00:00,
2013-02-11 18:10:00,28.4,24.2,29.10,West,268,7.0,26.0,84,0.00, +RA BR, +RA,-99.99,VWS V12.06,2013-02-12 00:10:00,
2013-02-11 18:15:00,28.4,24.2,29.11,West,274,7.0,26.0,84,0.00, +RA BR, +RA,-99.99,VWS V12.06,2013-02-12 00:15:00,
2013-02-11 18:20:00,28.4,24.5,29.11,WNW,284,7.0,26.0,85,0.00, +RA BR, +RA,-99.99,VWS V12.06,2013-02-12 00:20:00,
2013-02-11 18:25:00,28.4,24.8,29.11,WNW,303,7.0,26.0,86,0.00, +RA BR, +RA,-99.99,VWS V12.06,2013-02-12 00:25:00,
2013-02-11 18:30:00,28.2,24.6,29.11,West,277,8.0,26.0,86,0.00, +RA BR, +RA,-99.99,VWS V12.06,2013-02-12 00:30:00,
2013-02-11 18:35:00,28.2,24.3,29.12,WNW,286,7.0,18.0,85,0.00, +RA BR, +RA,-99.99,VWS V12.06,2013-02-12 00:35:00,
2013-02-11 18:40:00,28.2,24.0,29.12,WNW,289,4.0,25.0,84,0.00, +RA BR, +RA,-99.99,VWS V12.06,2013-02-12 00:40:00,
2013-02-11 18:45:00,28.1,23.6,29.12,WNW,287,13.0,25.0,83,0.00, +RA BR, +RA,-99.99,VWS V12.06,2013-02-12 00:45:00,
2013-02-11 18:50:00,28.1,23.0,29.12,WNW,282,11.0,25.0,81,0.00, +RA BR, +RA,-99.99,VWS V12.06,2013-02-12 00:50:00,
2013-02-11 18:55:00,28.1,23.6,29.12,WNW,293,8.0,25.0,83,0.00, +RA BR, +RA,-99.99,VWS V12.06,2013-02-12 00:55:00,
2013-02-11 19:00:00,27.9,24.3,29.13,West,280,8.0,8.0,86,0.00, +RA BR, +RA,-99.99,VWS V12.06,2013-02-12 01:00:00,
2013-02-11 19:10:00,27.9,24.5,29.13,West,274,7.0,16.0,87,0.00, +RA BR, +RA,-99.99,VWS V12.06,2013-02-12 01:10:00,
2013-02-11 19:15:00,27.9,24.3,29.14,WNW,302,9.0,20.0,86,0.00, +RA BR, +RA,-99.99,VWS V12.06,2013-02-12 01:15:00,
2013-02-11 19:20:00,27.9,23.7,29.14,WNW,301,15.0,20.0,84,0.00, +RA BR, +RA,-99.99,VWS V12.06,2013-02-12 01:20:00,
2013-02-11 19:25:00,27.9,23.7,29.14,WNW,291,13.0,20.0,84,0.00, +RA BR, +RA,-99.99,VWS V12.06,2013-02-12 01:25:00,
2013-02-11 19:30:00,27.9,23.7,29.13,WNW,293,6.0,20.0,84,0.00, +RA BR, +RA,-99.99,VWS V12.06,2013-02-12 01:30:00,
2013-02-11 19:40:00,27.8,24.2,29.14,West,273,9.0,16.0,86,0.00, +RA BR, +RA,-99.99,VWS V12.06,2013-02-12 01:40:00,
2013-02-11 19:45:00,27.8,24.2,29.14,WNW,298,7.0,16.0,86,0.00, +RA BR, +RA,-99.99,VWS V12.06,2013-02-12 01:45:00,
2013-02-11 19:50:00,27.8,24.2,29.13,WNW,296,11.0,21.0,86,0.00, +RA BR, +RA,-99.99,VWS V12.06,2013-02-12 01:50:00,
2013-02-11 20:00:00,27.6,23.7,29.15,NW,317,10.0,23.0,85,0.00, +RA BR, +RA,-99.99,VWS V12.06,2013-02-12 02:00:00,
2013-02-11 20:10:00,27.5,23.3,29.14,WNW,292,6.0,18.0,84,0.00, +RA BR, +RA,-99.99,VWS V12.06,2013-02-12 02:10:00,
2013-02-11 20:15:00,27.5,23.6,29.15,WNW,292,7.0,18.0,85,0.00, +RA BR, +RA,-99.99,VWS V12.06,2013-02-12 02:15:00,
2013-02-11 20:20:00,27.3,23.7,29.15,West,262,8.0,20.0,86,0.00, +RA BR, +RA,-99.99,VWS V12.06,2013-02-12 02:20:00,
2013-02-11 20:25:00,27.3,23.7,29.15,WNW,282,5.0,20.0,86,0.00, +RA BR, +RA,-99.99,VWS V12.06,2013-02-12 02:25:00,
2013-02-11 20:30:00,27.3,23.4,29.15,WNW,282,13.0,20.0,85,0.00, +RA BR, +RA,-99.99,VWS V12.06,2013-02-12 02:30:00,
2013-02-11 20:35:00,27.3,23.1,29.14,WNW,290,12.0,18.0,84,0.00, +RA BR, +RA,-99.99,VWS V12.06,2013-02-12 02:35:00,
2013-02-11 20:40:00,27.2,23.0,29.15,WNW,286,5.0,18.0,84,0.00, +RA BR, +RA,-99.99,VWS V12.06,2013-02-12 02:40:00,
2013-02-11 20:45:00,27.2,23.3,29.15,WNW,292,9.0,18.0,85,0.00, +RA BR, +RA,-99.99,VWS V12.06,2013-02-12 02:45:00,
2013-02-11 20:55:00,27.2,23.9,29.16,West,272,11.0,18.0,87,0.00, +RA BR, +RA,-99.99,VWS V12.06,2013-02-12 02:55:00,
2013-02-11 21:00:00,27.2,24.4,29.16,West,268,5.0,18.0,89,0.00, +RA BR, +RA,-99.99,VWS V12.06,2013-02-12 03:00:00,
2013-02-11 21:05:00,27.2,24.7,29.15,WNW,291,5.0,13.0,90,0.00, +RA BR, +RA,-99.99,VWS V12.06,2013-02-12 03:05:00,
2013-02-11 21:10:00,27.0,24.2,29.16,WNW,290,8.0,14.0,89,0.00, +RA BR, +RA,-99.99,VWS V12.06,2013-02-12 03:10:00,
2013-02-11 21:15:00,27.0,24.2,29.16,WNW,288,14.0,17.0,89,0.00, +RA BR, +RA,-99.99,VWS V12.06,2013-02-12 03:15:00,
2013-02-11 21:20:00,27.0,24.5,29.16,West,278,6.0,17.0,90,0.00, +RA BR, +RA,-99.99,VWS V12.06,2013-02-12 03:20:00,
2013-02-11 21:25:00,26.9,24.4,29.16,WNW,283,8.0,17.0,90,0.00, +RA BR, +RA,-99.99,VWS V12.06,2013-02-12 03:25:00,
2013-02-11 21:30:00,26.9,24.4,29.16,NW,311,5.0,17.0,90,0.00, +RA BR, +RA,-99.99,VWS V12.06,2013-02-12 03:30:00,
2013-02-11 21:35:00,26.9,24.4,29.16,WNW,291,11.0,16.0,90,0.00, +RA BR, +RA,-99.99,VWS V12.06,2013-02-12 03:35:00,
2013-02-11 21:40:00,26.7,24.2,29.16,WNW,288,10.0,19.0,90,0.00, +RA BR, +RA,-99.99,VWS V12.06,2013-02-12 03:40:00,
2013-02-11 21:49:00,26.7,23.4,29.16,West,280,11.0,21.0,87,0.00, +RA BR, +RA,-99.99,VWS V12.06,2013-02-12 03:49:00,
2013-02-11 21:54:00,26.6,23.0,29.16,NW,313,9.0,21.0,86,0.00, +RA BR, +RA,-99.99,VWS V12.06,2013-02-12 03:54:00,
2013-02-11 22:00:00,26.7,23.4,29.16,WNW,299,12.0,21.0,87,0.00, +RA BR, +RA,-99.99,VWS V12.06,2013-02-12 04:00:00,
2013-02-11 22:04:00,26.6,23.3,29.17,WNW,290,10.0,14.0,87,0.00, +RA BR, +RA,-99.99,VWS V12.06,2013-02-12 04:04:00,
2013-02-11 22:09:00,26.6,23.0,29.16,WNW,284,12.0,14.0,86,0.00, +RA BR, +RA,-99.99,VWS V12.06,2013-02-12 04:09:00,
2013-02-11 22:14:00,26.6,23.3,29.16,WNW,290,5.0,19.0,87,0.00, +RA BR, +RA,-99.99,VWS V12.06,2013-02-12 04:14:00,
2013-02-11 22:19:00,26.6,23.3,29.16,West,273,4.0,19.0,87,0.00, +RA BR, +RA,-99.99,VWS V12.06,2013-02-12 04:19:00,
2013-02-11 22:24:00,26.6,23.8,29.16,WNW,282,9.0,19.0,89,0.00, +RA BR, +RA,-99.99,VWS V12.06,2013-02-12 04:24:00,
2013-02-11 22:29:00,26.6,24.3,29.16,WNW,282,2.0,19.0,91,0.00, +RA BR, +RA,-99.99,VWS V12.06,2013-02-12 04:29:00,
2013-02-11 22:34:00,26.4,23.9,29.16,West,281,9.0,17.0,90,0.00, +RA BR, +RA,-99.99,VWS V12.06,2013-02-12 04:34:00,
2013-02-11 22:39:00,26.3,23.8,29.16,West,267,12.0,17.0,90,0.00, +RA BR, +RA,-99.99,VWS V12.06,2013-02-12 04:39:00,
2013-02-11 22:49:00,26.1,23.3,29.17,NW,308,6.0,17.0,89,0.00, +RA BR, +RA,-99.99,VWS V12.06,2013-02-12 04:49:00,
2013-02-11 22:54:00,26.1,23.3,29.17,WNW,289,5.0,17.0,89,0.00, +RA BR, +RA,-99.99,VWS V12.06,2013-02-12 04:54:00,
2013-02-11 22:59:00,26.0,23.2,29.17,WNW,294,6.0,17.0,89,0.00, +RA BR, +RA,-99.99,VWS V12.06,2013-02-12 04:59:00,
2013-02-11 23:04:00,26.0,22.9,29.18,WNW,296,9.0,11.0,88,0.00, +RA BR, +RA,-99.99,VWS V12.06,2013-02-12 05:04:00,
2013-02-11 23:09:00,25.8,22.7,29.18,NNW,327,5.0,16.0,88,0.00, +RA BR, +RA,-99.99,VWS V12.06,2013-02-12 05:09:00,
2013-02-11 23:14:00,25.7,22.4,29.18,West,275,4.0,16.0,87,0.00, +RA BR, +RA,-99.99,VWS V12.06,2013-02-12 05:14:00,
2013-02-11 23:19:00,25.7,22.4,29.18,WNW,290,7.0,16.0,87,0.00, +RA BR, +RA,-99.99,VWS V12.06,2013-02-12 05:19:00,
2013-02-11 23:24:00,25.5,22.2,29.19,WNW,295,6.0,16.0,87,0.00, +RA BR, +RA,-99.99,VWS V12.06,2013-02-12 05:24:00,
2013-02-11 23:29:00,25.4,22.1,29.18,WNW,289,7.0,16.0,87,0.00, +RA BR, +RA,-99.99,VWS V12.06,2013-02-12 05:29:00,
2013-02-11 23:34:00,25.4,22.4,29.18,WNW,301,7.0,11.0,88,0.00, +RA BR, +RA,-99.99,VWS V12.06,2013-02-12 05:34:00,
2013-02-11 23:39:00,25.2,22.1,29.19,NW,306,4.0,12.0,88,0.00, +RA BR, +RA,-99.99,VWS V12.06,2013-02-12 05:39:00,
2013-02-11 23:49:00,25.2,22.1,29.19,WNW,282,4.0,12.0,88,0.00, +RA BR, +RA,-99.99,VWS V12.06,2013-02-12 05:49:00,
2013-02-11 23:54:00,25.1,22.0,29.19,WNW,284,4.0,14.0,88,0.00, +RA BR, +RA,-99.99,VWS V12.06,2013-02-12 05:54:00,